Regional Weather Roundup
Issued by NWS Green Bay, WI

Home | Current Version | Previous Version | Graphics & Text | Print | Product List | Glossary Off
Versions: 1 2 3 4 5 6 7 8 9 10 11 12 13 14 15 16 17 18 19 20 21 22 23 24 25 26 27 28 29 30 31 32 33 34 35 36 37 38 39 40 41 42 43 44 45 46 47 48 49 50

000
ASUS43 KGRB 220900
RWRGRB

NORTH-CENTRAL AND NORTHEAST WISCONSIN REGIONAL WEATHER ROUNDUP
NATIONAL WEATHER SERVICE GREEN BAY WI
400 AM CDT FRI SEP 22 2017

WIZ005-009-010>012-018-019-221000-
NORTH CENTRAL WISCONSIN

CITY           SKY/WX    TMP DP  RH WIND       PRES   REMARKS
IRONWOOD       CLOUDY    70  65  84 S7        29.91S
MANITOWISH WTR NOT AVBL
ARBOR VITAE    NOT AVBL
EAGLE RIVER    NOT AVBL
LAND O LAKES   MOCLDY    68  65  91 S6        30.00S
RHINELANDER    MOCLDY    69  67  93 S6        30.00R
PHILLIPS       CLEAR     68  66  95 S7        29.94F
ANTIGO         NOT AVBL
TOMAHAWK       NOT AVBL
MERRILL        CLOUDY    67  67  98 S3        29.99S
$$

WIZ013-073-221000-
NORTHEAST WISCONSIN

CITY           SKY/WX    TMP DP  RH WIND       PRES   REMARKS
IRON MOUNTAIN  FOG       65  63  93 SE3       29.99S VSB 1/4
MARINETTE      CLEAR     67  65  93 CALM      30.00S FOG
$$

WIZ017-030-035>037-045-221000-
CENTRAL WISCONSIN

CITY           SKY/WX    TMP DP  RH WIND       PRES   REMARKS
MEDFORD        NOT AVBL
WAUSAU         PTCLDY    66  65  96 SE5       29.98R
MOSINEE        NOT AVBL
MARSHFIELD     CLOUDY    68  64  87 S7        29.98R
WISC RAPIDS    CLEAR     68  66  93 SE3       29.99S
STEVENS POINT  NOT AVBL
WAUPACA        NOT AVBL
SHAWANO        FOG       65  64  94 CALM      29.99S VSB 1/2
CLINTONVILLE   NOT AVBL
WAUTOMA        PTCLDY    63  63 100 CALM      30.00S
$$

WIZ038-039-048-051-221000-
FOX VALLEY

CITY           SKY/WX    TMP DP  RH WIND       PRES   REMARKS
NWS GREEN BAY  CLEAR     69  68  96 S6        30.00R
APPLETON       CLEAR     68  68 100 S3        30.00R FOG
OSHKOSH        CLEAR     68  66  93 S6        30.00R FOG
FOND DU LAC    CLEAR     70  66  87 S7        30.01R
$$

WIZ022-050-052-221000-
EAST CENTRAL WISCONSIN

CITY           SKY/WX    TMP DP  RH WIND       PRES   REMARKS
EPHRAIM        FAIR      69  67  95 S5        29.99S
WASHINGTON ISL NOT AVBL
STURGEON BAY   CLEAR     70  68  93 S9        30.00F FOG
MANITOWOC      CLEAR     67  66  97 CALM      30.01S FOG
SHEBOYGAN      FOG       64  64 100 S3        30.02R VSB 1/4
$$

LMZ563-521-522-541>543-221000-
LAKESHORE

STATION/POSITION TIME  TEMP    WIND        PRES    VSBY  WAVE
                       AIR SEA DIR/SP/G                  HT/PER
                 (UTC) (F)     (DEG/KT/KT) (MB)    (MI)  (FT/S)
SHEBOYGAN LKSHOR 0800   69     200/  4/  4 1015.9S
KEWAUNEE LKSHORE 0830   62     270/  1/  2 1015.1F
NORTHPORT PIER   0840   67     150/  6/  8 1015.6S
N MID LAKE BUOY  0750   68 65  170/  6/  8 1016.4          0
S GREEN BAY BUOY 0830   69 67  200/  6/  6 1015.3F
SISTER BAY LKSHO 0804   68     140/ 10/ 12   N/A
MENOMINEE LKSHOR 0830   69     180/  7/  9 1015.1F
$$




USA.gov is the U.S. government's official web portal to all federal, state and local government web resources and services.